Date String (YYYY-MM-DD hh:mm:ss) UTC,Instrument flags,absolute air pressure of the measurement (hPa),sample flow rate (lpm),inlet stack bypass flow (lpm),air temperature of the measurement (°C),ambient temperature measured by the external sensor (°C),aerosol sample conditioner tube jacket temperature (°C),OPC LED temperature (°C),internal box temperature (°C),relative humidity of the measurement (%),span deviation,mass concentration of particles derived from Lorenz-Mie calculation of OPC scattering (μg/m³),mass concentration of particles derived from Lorenz-Mie calculation of OPC scattering (μg/m³),mass concentration of particles derived from Lorenz-Mie calculation of OPC scattering (μg/m³)
DateTimeUTC,F1_M11,P_M11,Q1_M11,Q2_M11,T1_M11,T2_M11,T3_M11,T4_M11,T5_M11,U1_M11,ZSPAN_M11,X0_M11,X2_M11,X1_M11
2024-04-24 12:00:00,SystemResetWarning,0829.8,5.00,000.00,024.7,024.0,000.0,033.3,026.6,021.7,0000.0,0008.47,0004.59,0003.70
2024-04-24 12:01:00,SystemResetWarning,0829.8,5.00,000.00,024.8,024.0,000.0,033.3,026.6,021.7,0000.0,0008.53,0004.60,0003.69
2024-04-24 12:02:00,SystemResetWarning,0829.7,5.00,000.00,024.7,024.0,000.0,033.3,026.6,021.7,0000.0,0008.68,0004.65,0003.69
2024-04-24 12:03:00,SystemResetWarning,0829.7,5.01,000.00,024.7,024.0,000.0,033.3,026.6,021.7,0000.0,0008.72,0004.65,0003.69
2024-04-24 12:04:00,SystemResetWarning,0829.7,5.00,000.00,024.7,024.0,000.0,033.3,026.6,021.7,0000.0,0008.66,0004.64,0003.67
2024-04-24 12:05:00,SystemResetWarning,0829.7,5.00,000.00,024.7,024.0,000.0,033.3,026.6,021.7,0000.0,0008.65,0004.63,0003.65
2024-04-24 12:06:00,SystemResetWarning,0829.7,5.00,000.00,024.7,024.0,000.0,033.3,026.6,021.7,0000.0,0008.80,0004.65,0003.64
2024-04-24 12:07:00,SystemResetWarning,0829.7,5.00,000.00,024.7,024.0,000.0,033.3,026.6,021.8,0000.0,0008.75,0004.63,0003.64
2024-04-24 12:08:00,SystemResetWarning,0829.7,5.00,000.00,024.7,024.0,000.0,033.3,026.6,021.9,0000.0,0008.80,0004.63,0003.64
2024-04-24 12:09:00,SystemResetWarning,0829.7,5.00,000.00,024.7,023.9,000.0,033.3,026.6,021.9,0000.0,0008.96,0004.64,0003.64
2024-04-24 12:10:00,SystemResetWarning,0829.7,5.01,000.00,024.7,023.9,000.0,033.3,026.5,021.9,0000.0,0008.94,0004.66,0003.66
2024-04-24 12:11:00,SystemResetWarning,0829.8,4.99,000.00,024.7,023.9,000.0,033.3,026.5,021.8,0000.0,0009.24,0004.67,0003.68
2024-04-24 12:12:00,SystemResetWarning,0829.8,4.99,000.00,024.7,023.9,000.0,033.3,026.5,021.8,0000.0,0009.91,0004.69,0003.67
2024-04-24 12:13:00,SystemResetWarning,0829.9,4.99,000.00,024.7,023.9,000.0,033.3,026.5,021.8,0000.0,0009.98,0004.71,0003.68
2024-04-24 12:14:00,SystemResetWarning,0829.9,5.01,000.00,024.7,023.9,000.0,033.3,026.5,021.8,0000.0,0010.11,0004.76,0003.69
2024-04-24 12:15:00,SystemResetWarning,0829.9,5.01,000.00,024.7,023.9,000.0,033.3,026.5,021.8,0000.0,0011.72,0004.78,0003.71
2024-04-24 12:16:00,SystemResetWarning,0829.8,5.00,000.00,024.7,023.9,000.0,033.2,026.5,021.7,0000.0,0012.64,0004.82,0003.72
2024-04-24 12:17:00,SystemResetWarning,0829.8,5.00,000.00,024.6,023.9,000.0,033.2,026.5,021.7,0000.0,0012.62,0004.83,0003.73
2024-04-24 12:18:00,SystemResetWarning,0829.8,4.99,000.00,024.6,023.9,000.0,033.2,026.5,021.7,0000.0,0012.64,0004.83,0003.74
2024-04-24 12:19:00,SystemResetWarning,0829.8,5.00,000.00,024.6,023.9,000.0,033.2,026.5,021.8,0000.0,0012.49,0004.81,0003.73
2024-04-24 12:20:00,SystemResetWarning,0829.8,5.00,000.00,024.6,023.9,000.0,033.2,026.5,021.8,0000.0,0012.86,0004.77,0003.72
2024-04-24 12:21:00,SystemResetWarning,0829.8,5.00,000.00,024.6,023.9,000.0,033.2,026.5,021.8,0000.0,0013.24,0004.76,0003.70
2024-04-24 12:22:00,SystemResetWarning,0829.8,5.00,000.00,024.6,023.9,000.0,033.2,026.5,021.8,0000.0,0012.99,0004.74,0003.68
2024-04-24 12:23:00,SystemResetWarning,0829.8,5.00,000.00,024.6,023.9,000.0,033.2,026.5,021.8,0000.0,0012.35,0004.69,0003.68
2024-04-24 12:24:00,SystemResetWarning,0829.8,5.00,000.00,024.6,023.9,000.0,033.2,026.5,021.9,0000.0,0012.21,0004.67,0003.68
2024-04-24 12:25:00,SystemResetWarning,0829.8,5.00,000.00,024.6,023.9,000.0,033.2,026.5,021.8,0000.0,0012.48,0004.64,0003.66
2024-04-24 12:26:00,SystemResetWarning,0829.8,5.00,000.00,024.6,023.9,000.0,033.2,026.5,021.9,0000.0,0011.26,0004.61,0003.66
2024-04-24 12:27:00,SystemResetWarning,0829.8,5.00,000.00,024.6,023.9,000.0,033.2,026.5,021.8,0000.0,0009.98,0004.57,0003.65
2024-04-24 12:28:00,SystemResetWarning,0829.8,5.00,000.00,024.6,023.9,000.0,033.2,026.5,021.8,0000.0,0009.84,0004.53,0003.64
2024-04-24 12:29:00,SystemResetWarning,0829.8,5.00,000.00,024.6,023.9,000.0,033.2,026.5,021.9,0000.0,0009.80,0004.52,0003.63
2024-04-24 12:30:00,SystemResetWarning,0829.8,5.00,000.00,024.6,023.9,000.0,033.2,026.5,021.9,0000.0,0009.77,0004.50,0003.62
2024-04-24 12:31:00,SystemResetWarning,0829.8,5.00,000.00,024.6,023.9,000.0,033.2,026.5,021.9,0000.0,0009.45,0004.47,0003.60
2024-04-24 12:32:00,SystemResetWarning,0829.8,5.00,000.00,024.6,023.9,000.0,033.2,026.5,021.8,0000.0,0009.06,0004.45,0003.60
2024-04-24 12:33:00,SystemResetWarning,0829.8,5.01,000.00,024.6,023.9,000.0,033.2,026.5,021.8,0000.0,0009.00,0004.49,0003.62
2024-04-24 12:34:00,SystemResetWarning,0829.8,5.00,000.00,024.6,023.9,000.0,033.2,026.5,021.9,0000.0,0009.11,0004.55,0003.64
2024-04-24 12:35:00,SystemResetWarning,0829.8,5.01,000.00,024.6,023.9,000.0,033.2,026.5,021.9,0000.0,0009.26,0004.60,0003.65
2024-04-24 12:36:00,SystemResetWarning,0829.8,5.00,000.00,024.6,023.9,000.0,033.2,026.5,021.8,0000.0,0009.07,0004.62,0003.67
2024-04-24 12:37:00,SystemResetWarning,0829.7,4.99,000.00,024.6,023.9,000.0,033.2,026.4,021.8,0000.0,0008.78,0004.62,0003.68
2024-04-24 12:38:00,SystemResetWarning,0829.7,4.99,000.00,024.6,023.9,000.0,033.2,026.4,021.9,0000.0,0008.97,0004.67,0003.68
2024-04-24 12:39:00,SystemResetWarning,0829.7,5.00,000.00,024.6,023.8,000.0,033.2,026.4,021.9,0000.0,0009.11,0004.74,0003.71
2024-04-24 12:40:00,SystemResetWarning,0829.7,5.01,000.00,024.6,023.8,000.0,033.1,026.4,022.0,0000.0,0009.29,0004.79,0003.73
2024-04-24 12:41:00,SystemResetWarning,0829.7,5.01,000.00,024.6,023.8,000.0,033.1,026.4,021.9,0000.0,0009.42,0004.81,0003.75
2024-04-24 12:42:00,SystemResetWarning,0829.7,5.00,000.00,024.6,023.8,000.0,033.1,026.4,021.9,0000.0,0009.45,0004.85,0003.78
2024-04-24 12:43:00,SystemResetWarning,0829.7,4.99,000.00,024.6,023.8,000.0,033.1,026.4,022.0,0000.0,0009.34,0004.90,0003.81
2024-04-24 12:44:00,SystemResetWarning,0829.8,5.00,000.00,024.6,023.8,000.0,033.1,026.4,022.1,0000.0,0009.40,0004.88,0003.82
2024-04-24 12:45:00,SystemResetWarning,0829.8,5.01,000.00,024.6,023.8,000.0,033.1,026.4,022.0,0000.0,0009.63,0004.88,0003.81
2024-04-24 12:46:00,SystemResetWarning,0829.8,5.01,000.00,024.5,023.8,000.0,033.1,026.4,022.0,0000.0,0009.48,0004.82,0003.80
2024-04-24 12:47:00,SystemResetWarning,0829.8,5.00,000.00,024.5,023.8,000.0,033.1,026.4,021.9,0000.0,0009.33,0004.75,0003.79
2024-04-24 12:48:00,SystemResetWarning,0829.8,4.99,000.00,024.6,023.8,000.0,033.1,026.4,021.9,0000.0,0009.35,0004.75,0003.80
2024-04-24 12:49:00,SystemResetWarning,0829.8,4.99,000.00,024.6,023.9,000.0,033.1,026.4,021.8,0000.0,0009.32,0004.74,0003.80
2024-04-24 12:50:00,SystemResetWarning,0829.8,5.00,000.00,024.6,023.9,000.0,033.1,026.4,022.1,0000.0,0009.12,0004.67,0003.78
2024-04-24 12:51:00,SystemResetWarning,0829.8,5.00,000.00,024.6,023.9,000.0,033.1,026.4,022.7,0000.0,0008.87,0004.61,0003.77
2024-04-24 12:52:00,SystemResetWarning,0829.7,5.00,000.00,024.6,023.8,000.0,033.1,026.4,022.3,0000.0,0008.94,0004.64,0003.77
2024-04-24 12:53:00,SystemResetWarning,0829.7,5.00,000.00,024.6,023.9,000.0,033.1,026.4,022.1,0000.0,0009.63,0004.60,0003.77
2024-04-24 12:54:00,SystemResetWarning,0829.7,5.00,000.00,024.6,023.9,000.0,033.1,026.4,022.2,0000.0,0009.54,0004.59,0003.75
2024-04-24 12:55:00,SystemResetWarning,0829.7,5.00,000.00,024.5,023.8,000.0,033.1,026.4,022.0,0000.0,0009.48,0004.57,0003.75
2024-04-24 12:56:00,SystemResetWarning,0829.7,5.01,000.00,024.5,023.8,000.0,033.1,026.4,021.9,0000.0,0009.44,0004.57,0003.75
2024-04-24 12:57:00,SystemResetWarning,0829.7,5.01,000.00,024.6,023.8,000.0,033.1,026.4,022.0,0000.0,0009.54,0004.61,0003.76
2024-04-24 12:58:00,SystemResetWarning,0829.7,5.01,000.00,024.6,023.8,000.0,033.1,026.4,022.1,0000.0,0009.80,0004.67,0003.78
2024-04-24 12:59:00,SystemResetWarning,0829.7,4.99,000.00,024.6,023.9,000.0,033.1,026.4,022.3,0000.0,0010.08,0004.73,0003.77
